Regional Weather Roundup
Issued by NWS

Home | Current Version | Previous Version | Text Only | Print | Product List | Glossary On
Versions: 1 2 3 4 5 6 7 8 9 10 11 12 13 14 15 16 17 18 19 20 21 22 23 24 25 26 27 28 29 30 31 32 33 34 35 36 37 38 39 40 41 42 43 44 45 46 47 48 49 50
000
ASHW40 PHFO 270543
RWRHI

WEATHER ROUNDUP FOR HAWAII
NATIONAL WEATHER SERVICE HONOLULU HI
700 PM HST MON SEP 26 2016

THIS IS AN AUTOMATED REPORT THAT HAS NOT BEEN QUALITY CONTROLLED.

NOTE..."FAIR" INDICATES FEW OR NO CLOUDS BELOW 12,000 FEET WITH NO
SIGNIFICANT WEATHER AND/OR OBSTRUCTIONS TO VISIBILITY.

* - THESE SITES REPORT LIMITED FIELDS

HIZ001>004-270600-
KAUAI-NIIHAU-

CITY           SKY/WX    TMP DP  RH WIND       PRES   REMARKS
LIHUE APT      MOCLDY    80  70  71 NE17      30.03R
PORT ALLEN*      N/A     79 N/A N/A NE18        N/A
POIPU*           N/A     79 N/A N/A NE9G23      N/A
PRINCEVILLE*     N/A     77 N/A N/A SE7         N/A
KOKOLE POINT*    N/A     82 N/A N/A MISG        N/A
MOLOAA DAIRY*    N/A     77  70  78 E6G12       N/A
WAIMEA HTS*      N/A     77  66  69 E9G24       N/A
PUU OPAE*        N/A     72  61  68 E10         N/A
PUU LUA*       NOT AVBL
MAKAHA RIDGE*    N/A     73  63  68 E2G8        N/A
$$

HIZ005>011-270600-
OAHU-

CITY           SKY/WX    TMP DP  RH WIND       PRES   REMARKS
HONOLULU       PTCLDY    78  66  66 NE16G25   29.98R
KALAELOA       CLEAR     79  66  64 E8        29.99R
KANEOHE MCB    MOCLDY    79  69  71 E12       29.97R
WHEELER FIELD  FAIR      75  66  73 NE9       30.00R
BELLOWS*         N/A    N/A N/A N/A NE16        N/A
WHEELER*         N/A    N/A N/A N/A N1G7        N/A
WAIANAE HARBOR   N/A    N/A N/A N/A NE7G17      N/A
DILLINGHAM*      N/A     81  66  61 MISG        N/A
KAHUKU TRN*      N/A     82  75  78 W9G22       N/A
KAWAILOA*        N/A     72  66  83 E13G26      N/A
KII*             N/A     79  70  73 E17         N/A
MAKUA RANGE*     N/A     88  72  58 NW9G21      N/A  HX  94
OAHU FOREST NW   N/A     72  64  78 E26         N/A
SCHOFIELD BRK*   N/A     73  64  73 MISG        N/A
SCHOFIELD S*   NOT AVBL
WAIANAE VLY*   NOT AVBL
KUAOKALA*        N/A     73  66  78 NE18G30     N/A
HONOULIUULI*   NOT AVBL
MOKUOLOE IS*   NOT AVBL
PALEHUA*         N/A     66  63  88 NE14G32     N/A
WAIAWA PHB*    NOT AVBL
$$

HIZ012>013-270600-
MOLOKAI-

CITY           SKY/WX    TMP DP  RH WIND       PRES   REMARKS
MOLOKAI AIRPT  MOCLDY    79  68  69 VRB7      30.00R
KALAUPAPA      NOT AVBL
MAKAPULAPAI*     N/A     79  70  73 E18G28      N/A
MOLOKAI 1*     NOT AVBL
PUU ALII*        N/A     60  59  95 N3G14       N/A
$$

HIZ016-270600-
KAHOOLAWE-

CITY           SKY/WX    TMP DP  RH WIND       PRES   REMARKS
KAHOOLAWE*       N/A     72 N/A N/A E1          N/A
HAKIOAWA*        N/A     73  65  75 MISG        N/A
HONOKANAIA*      N/A     82  66  59 NE15G30   29.89R
KANELOA*         N/A     77  66  69 E18G35    30.01
KEALIALALO*    NOT AVBL
LUA MAKIKA*    NOT AVBL
$$

HIZ014>015-270600-
LANAI-

CITY           SKY/WX    TMP DP  RH WIND       PRES   REMARKS
LANAI CITY     FAIR      72  64  76 NE21      30.02R
LANAI 1*       NOT AVBL
$$

HIZ017>028-270600-
MAUI-

CITY           SKY/WX    TMP DP  RH WIND       PRES   REMARKS
KAHULUI        PTCLDY    79  65  62 NE14      29.98R
KAPALUA-W MAUI NOT AVBL
HANA AIRPORT   NOT AVBL
HANA*            N/A     75 N/A N/A S3          N/A
HALEAKALA SUMM   N/A     45  25  45 E14         N/A
MAALAEA BAY*     N/A     79 N/A N/A N24G32      N/A
HALEAKALA*     NOT AVBL
KAUPO GAP*       N/A     70  59  68 NW23G32     N/A
KULA 1*          N/A     53  52  95 E3          N/A
$$

HIZ023>026-270600-
BIG ISLAND OF HAWAII COAST AND LOWER SLOPES-

CITY           SKY/WX    TMP DP  RH WIND       PRES   REMARKS
KAILUA KONA    CLEAR     82  64  54 NE17G24   29.91R
HILO           PTCLDY    76  71  85 NW6       29.99R
HONOKAA*         N/A     70 N/A N/A VRB1        N/A
KAWAIHAE MWT*    N/A     82 N/A N/A SW5         N/A
KAWAIHAE*        N/A     82 N/A N/A NW2       29.93R
SOUTH POINT*     N/A     73 N/A N/A N12G17      N/A
UPOLU AIRPORT* NOT AVBL
KAMUELA*       CLEAR     64  61  88 NE18      30.07R
HAKALAU*         N/A     46  43  87 NW3         N/A
KALOKO-HONOKO*   N/A     81  68  65 SE3       29.91
PALI 2*          N/A     68  57  68 S18G32      N/A
KEALAKOMO*       N/A     79  64  61 NE17G28     N/A
KAUPULEHU*       N/A    N/A N/A N/A E5G12       N/A
KAPAPALA*        N/A     69  65  86 N3G14       N/A
LOWER KAHUKU*    N/A     61  59  94 N1          N/A
PUHE CS*         N/A     82  61  47 SW1         N/A
PUHO CS*         N/A     81  67  62 W1          N/A
PTA KEAMUKU*     N/A     63  52  67 CALM        N/A
WAIKOLOA*        N/A    N/A N/A N/A E16G28      N/A
$$

HIZ027>028-270600-
BIG ISLAND OF HAWAII INTERIOR AND SUMMMITS-

CITY           SKY/WX    TMP DP  RH WIND       PRES   REMARKS
BRADSHAW FIELD CLEAR     56  51  82 SW2       30.28R
MK VISITOR CEN   N/A     52  23  32 NE8         N/A
MAUNA KEA*       N/A     37  -9  13 E7          N/A
MAUNA LOA*       N/A    N/A N/A N/A MISG        N/A
MAUNA LOA 1*   NOT AVBL
PTA KIPUKA*      N/A     57  54  88 SE2         N/A
PTA RANGE 17*    N/A     61  50  67 SE8         N/A
PTA WEST*        N/A     75  66  73 S9          N/A
NENE CABIN*    NOT AVBL
AHUMOA*          N/A     52  50  93 CALM        N/A
PTA PORTABLE*  NOT AVBL
PUU MALI*        N/A    N/A N/A N/A SE10G21     N/A
$$

HIC003-270600-
NORTHWEST ISLANDS-

CITY           SKY/WX    TMP DP  RH WIND       PRES   REMARKS
MIDWAY ISLAND  PTCLDY    81  73  78 E10       30.09S
MIDWAY NOS*      N/A     81 N/A N/A MISG      30.08S
FRENCH FRIGATE NOT AVBL
$$

PHZ110>124-180-270600-
BUOY REPORTS

STATION/POSITION TIME  TEMP    WIND        PRES    WAVE   SWELL
                       AIR SEA DIR/SP/G            HT/PER HT/DIR
                 (UTC) (F)     (DEG/KT/KT) (MB)    (FT/S) (FT/D)
BUOY 51001       NOT AVBL
BUOY 51101       0450   78 80   60/ 17/ 19 1017.0R   7/ 9   5/ 10
BUOY 51100       NOT AVBL
BUOY 51002       NOT AVBL
BUOY 51003       0450   80 82   60/ 12/ 14 1013.2R   6/ 7   5/ 60
BUOY 51004       0450   81 81   70/ 19/ 23 1012.3R   8/ 8   5/100
BARBERS PT BUOY  NOT AVBL
WAIMEA BAY BUOY  0504      82                N/A     5/10   2/340
KAILUA BAY BUOY  0504      81                N/A     7/ 9   2/ 20
LANAI BUOY       0515      82                N/A     2/13   2/210
BARBERS PT 2     NOT AVBL
PAUWELA MAUI     0509      80                N/A     6/10   2
HILO             0512      81                N/A     7/ 8   2/ 70
KANEOHE BAY BUOY 0506      80                N/A     6/ 9   2/ 30
HANALEI KAUAI    NOT AVBL
KAHULUI HARBOR   0500   80 81   30/ 11/ 14 1015.4R
HONOLULU HARBOR  0500   80 82   60/  8/ 13 1015.8R
KILO NALU        NOT AVBL
HILO HARBOR      0500   76 79  270/  6/ 10 1015.2R
MOKUOLOE         0400   80 82   80/ 11/ 14 1015.4R
NAWILIWILI       0500   79 82   60/ 13/ 16 1016.2R
WHOTS BUOY       NOT AVBL
BUOY 51028       NOT AVBL
$$

......................KEY........................................
  SKY/WX - SKY CONDITIONS/PRESENT WEATHER
  TMP    - TEMPERATURE IN FAHRENHEIT
  DWPT   - DEWPOINT IN FAHRENHEIT
  RH     - RELATIVE HUMIDITY IN PERCENT
  WIND   - DIRECTION AND SPEED /MPH FOR ISLANDS...KTS FOR BUOYS/
  PRES   - MEAN SEA LEVEL PRESSURE IN INCHES OF HG
  VSB    - VISIBILITY IN MILES
  HX     - HEAT INDEX
  WCI    - WIND CHILL INDEX
  VRB    - VARIABLE WIND DIRECTION
  N/A    - NOT AVAILABLE



USA.gov is the U.S. government's official web portal to all federal, state and local government web resources and services.